FW3241 Weather Reports


time (UTC)temp
F
wind
direction
speed
knots
gust
knots
rain 1hr
in
rain 24hr
in
rain mn
in
humidity
%
barometer
mb
20260507224514 48 42 0.9 1.7 0.00 0.59 0.28 82 1012.8
20260507223016 47 42 0.9 1.7 0.00 0.59 0.28 82 1012.8
20260507221511 48 41 0.9 1.7 0.00 0.59 0.28 82 1012.5
20260507220009 48 41 0.9 2.6 0.00 0.59 0.28 82 1012.1
20260507214507 49 42 0.9 2.6 0.00 0.69 0.28 80 1011.9
20260507213004 51 38 0.9 1.7 0.00 0.69 0.28 78 1011.8
20260507211601 54 36 0.9 2.6 0.00 0.69 0.28 77 1011.3
20260507210104 55 42 0.9 2.6 0.00 0.69 0.28 77 1011.0
20260507204559 55 38 0.9 3.5 0.00 0.72 0.28 77 1010.8
20260507203101 56 46 0.9 2.6 0.00 0.72 0.28 79 1010.9
20260507201619 54 43 0.9 2.6 0.00 0.72 0.28 80 1011.1
20260507200109 54 40 1.7 2.6 0.00 0.72 0.28 78 1011.2
20260507194557 55 40 0.9 2.6 0.00 0.72 0.28 79 1010.9
20260507193055 55 32 0.9 3.5 0.00 0.72 0.28 80 1010.8
20260507191555 56 42 0.9 2.6 0.00 0.72 0.28 79 1010.9
20260507190054 56 43 0.9 1.7 0.00 0.72 0.28 78 1010.9
20260507184554 56 34 0.9 2.6 0.00 0.72 0.28 80 1010.9
20260507183056 56 42 0.9 2.6 0.00 0.72 0.28 81 1011.1
20260507181554 55 17 0.9 2.6 0.00 0.72 0.28 81 1011.3
20260507180052 54 13 0.9 4.3 0.00 0.72 0.28 81 1011.4
20260507174557 55 41 0.9 2.6 0.00 0.72 0.28 81 1011.3
20260507173057 55 27 0.9 3.5 0.00 0.72 0.28 82 1011.3
20260507171559 54 43 0.9 3.5 0.00 0.72 0.28 83 1011.1
20260507170050 54 44 0.9 3.5 0.00 0.72 0.28 84 1011.3
20260507164549 53 37 1.7 3.5 0.00 0.73 0.28 84 1011.0
20260507163047 53 55 1.7 3.5 0.00 0.73 0.28 83 1010.7
20260507161553 54 28 1.7 2.6 0.00 0.73 0.28 84 1010.9
20260507160046 55 320 0.9 2.6 0.00 0.73 0.28 84 1011.2
20260507154547 56 242 0.9 2.6 0.00 0.97 0.28 84 1011.2
20260507153106 56 218 0.9 2.6 0.00 0.97 0.28 83 1011.0
20260507151546 57 215 0.9 2.6 0.00 0.97 0.28 85 1011.0
20260507150050 56 201 0.0 1.7 0.00 0.97 0.28 85 1011.1
20260507144540 56 201 0.0 1.7 0.00 1.09 0.28 85 1010.9
20260507143037 55 201 0.9 2.6 0.00 1.09 0.28 85 1010.8
20260507141536 55 202 0.0 1.7 0.00 1.09 0.28 86 1010.9
20260507140036 55 184 0.0 1.7 0.01 1.09 0.28 86 1011.2
20260507134535 54 184 0.0 0.9 0.01 1.09 0.28 86 1011.0
20260507133035 54 184 0.0 0.9 0.01 1.09 0.28 86 1010.5
20260507131535 53 184 0.0 0.9 0.01 1.09 0.28 85 1011.5
20260507130053 53 184 0.0 0.0 0.00 1.08 0.27 85 1011.1
20260507124532 53 184 0.0 0.0 0.00 1.08 0.27 86 1010.7
20260507123035 53 184 0.0 0.0 0.00 1.08 0.27 85 1011.2
20260507121533 52 184 0.0 0.9 0.01 1.08 0.27 86 1010.7
20260507120037 52 184 0.0 0.0 0.07 1.08 0.27 85 1010.3
20260507114529 52 184 0.0 0.0 0.12 1.08 0.27 85 1010.7
20260507113028 53 184 0.0 0.9 0.17 1.08 0.27 85 1010.7
20260507111528 53 184 0.0 0.9 0.17 1.07 0.26 85 1011.4
20260507110029 53 184 0.0 0.9 0.11 1.01 0.20 85 1011.9
20260507104526 53 184 0.0 0.0 0.06 0.96 0.15 85 1011.5
20260507103028 53 184 0.0 0.0 0.01 0.91 0.10 85 1011.7
20260507101535 53 184 0.0 0.0 0.00 0.90 0.09 85 1010.9
20260507100034 53 184 0.0 0.9 0.00 0.90 0.09 85 1010.7
20260507094523 53 184 0.0 1.7 0.00 0.90 0.09 85 1011.4
20260507093024 53 184 0.0 0.0 0.00 0.90 0.09 85 1010.8
20260507091520 53 184 0.0 0.9 0.00 0.90 0.09 85 1010.4
20260507090019 54 184 0.0 0.0 0.00 0.90 0.09 85 1010.7
20260507084518 54 184 0.0 0.0 0.00 0.90 0.09 85 1010.8
20260507083018 53 184 0.0 0.0 0.00 0.90 0.09 85 1010.9
20260507081519 53 184 0.0 0.0 0.00 0.90 0.09 84 1011.1
20260507080016 53 184 0.0 0.0 0.00 0.90 0.09 85 1011.1
20260507074516 54 184 0.0 1.7 0.00 0.90 0.09 85 1011.4
20260507073015 54 184 0.0 1.7 0.00 0.90 0.09 85 1012.1
20260507071513 54 184 0.0 0.0 0.01 0.90 0.09 85 1011.2
20260507070013 54 184 0.0 0.0 0.01 0.90 0.09 84 1011.1
20260507064512 53 184 0.0 0.0 0.01 0.90 0.09 85 1011.1
20260507063011 53 184 0.0 0.0 0.01 0.90 0.09 85 1011.5
20260507061608 53 184 0.0 0.0 0.00 0.89 0.08 85 1012.0
20260507060017 53 182 0.0 0.9 0.00 0.89 0.08 85 1012.1
20260507054506 53 182 0.0 0.0 0.02 0.89 0.08 84 1012.7
20260507053005 53 182 0.0 0.0 0.06 0.89 0.08 84 1013.3
20260507051506 53 182 0.0 0.9 0.07 0.89 0.08 84 1013.8
20260507050002 53 182 0.0 0.9 0.07 0.88 0.07 84 1013.6
20260507044601 54 182 0.9 1.7 0.06 0.87 0.06 85 1013.9
20260507043102 54 217 0.0 0.0 0.17 0.83 0.02 84 1013.7
20260507041556 54 217 0.0 0.0 0.16 0.82 0.01 85 1014.1
20260507040053 54 218 0.0 1.7 0.15 0.81 0.00 85 1014.0
20260507034555 55 207 0.0 2.6 0.15 0.81 0.81 84 1014.0
20260507033053 55 103 0.9 2.6 0.00 0.66 0.66 85 1013.2
20260507031551 55 103 0.0 0.0 0.00 0.66 0.66 85 1014.0
20260507030052 55 103 0.9 1.7 0.00 0.66 0.66 85 1013.5
20260507024603 54 103 0.0 0.9 0.01 0.66 0.66 85 1014.3
20260507023050 54 103 0.0 0.0 0.02 0.66 0.66 84 1014.2
20260507021549 54 96 0.0 1.7 0.02 0.66 0.66 84 1013.0
20260507020105 55 96 0.9 5.2 0.02 0.66 0.66 85 1012.2
20260507014555 55 98 0.0 3.5 0.03 0.65 0.65 85 1013.8
20260507013049 55 186 0.0 0.9 0.03 0.64 0.64 85 1015.8
20260507011544 55 185 0.0 0.9 0.03 0.64 0.64 85 1014.5
20260507010044 55 190 0.0 0.9 0.04 0.63 0.63 85 1014.3
20260507004545 55 188 0.0 0.9 0.05 0.62 0.62 84 1014.4
20260507003043 55 190 0.0 3.5 0.05 0.61 0.61 84 1013.7
20260507001545 55 189 0.0 1.7 0.06 0.61 0.61 84 1013.4
20260507000041 55 179 0.0 1.7 0.09 0.59 0.59 84 1013.3
20260506234548 56 195 0.0 2.6 0.07 0.56 0.56 84 1012.6
20260506233041 56 171 0.9 1.7 0.06 0.56 0.56 83 1013.3
20260506231549 56 191 0.0 2.6 0.05 0.55 0.55 83 1013.2
20260506230052 56 189 0.9 2.6 0.00 0.50 0.50 83 1014.1